Regional Weather Roundup
Issued by NWS

Home | Current Version | Previous Version | Graphics & Text | Print | Product List | Glossary On
Versions: 1 2 3 4 5 6 7 8 9 10 11 12 13 14 15 16 17 18 19 20 21 22 23 24 25 26 27 28 29 30 31 32 33 34 35 36 37 38 39 40 41 42 43 44 45 46 47 48 49 50
000
ASUS45 KBOI 221210
RWRID

IDAHO REGIONAL WEATHER ROUNDUP
NATIONAL WEATHER SERVICE BOISE ID
600 AM MDT FRI SEP 22 2017

NOTE: "FAIR" INDICATES FEW OR NO CLOUDS BELOW 12000 FEET
WITH NO SIGNIFICANT WEATHER AND/OR OBSTRUCTIONS TO VISIBILITY

IDZ012-014-221300-
SOUTHWEST IDAHO


CITY           SKY/WX    TMP DP  RH WIND       PRES   REMARKS
BOISE          CLOUDY    44  38  79 NW14      29.87R
CALDWELL       LGT RAIN  44  42  93 W8        29.88S
MOUNTAIN HOME  PTCLDY    39  39 100 NW8       29.87R WCI  33
$$

IDZ016-017-221300-
SOUTHCENTRAL IDAHO


CITY           SKY/WX    TMP DP  RH WIND       PRES   REMARKS
BURLEY         LGT RAIN  42  36  79 W12       29.85R
JEROME         MOCLDY    38  36  92 SW7       29.86R WCI  33
TWIN FALLS     CLOUDY    39  34  82 SW13      29.86R WCI  31
$$

IDZ019>023-221300-
SOUTHEAST IDAHO


CITY           SKY/WX    TMP DP  RH WIND       PRES   REMARKS
IDAHO FALLS    CLOUDY    40  40 100 S7        29.83F
POCATELLO      NOT AVBL
REXBURG        LGT RAIN  39  39 100 SW6       29.82S WCI  35
$$

IDZ006-010-011-018-031-032-221300-
CENTRAL IDAHO MOUNTAINS


CITY           SKY/WX    TMP DP  RH WIND       PRES   REMARKS
MCCALL         CLOUDY    38  33  82 VRB6      29.81S WCI  33
HAILEY         CLOUDY    37  37 100 SE7       29.83R WCI  32
STANLEY          N/A     33  33 100 CALM      29.81R
SALMON         LGT RAIN  42  37  82 CALM      29.85S
CHALLIS        LGT RAIN  37  36  96 NW7       29.82S WCI  32
$$

IDZ002-004-006-007-026-221300-
NORTHERN IDAHO


CITY           SKY/WX    TMP DP  RH WIND       PRES   REMARKS
LEWISTON       CLEAR     40  39  97 CALM      29.96S
LOWELL           N/A     42  38  85 NW3       29.96S
COEUR D`ALENE  CLEAR     39  37  92 NE8       29.99R WCI  33
MULLAN PASS    CLOUDY    31  29  92 VRB3      29.93S FOG
$$



USA.gov is the U.S. government's official web portal to all federal, state and local government web resources and services.